Entebbe, Uganda

6:33 PM EAT on November 12, 2019 (GMT +0300)
Entebbe

Weather History for HUEN - October, 2019

Change the Weather History Date:

Monday, October 21, 2019

  Actual Average Record
Temperature  
Mean Temperature 72 °F -  
Max Temperature 77 °F 75 °F 82 °F (2004)
Min Temperature 66 °F 65 °F 62 °F (2000)
Cooling Degree Days 6    
Growing Degree Days 22 (Base 50)    
Moisture  
Dew Point 67 °F    
Average Humidity 88    
Maximum Humidity 100    
Minimum Humidity 65    
Precipitation  
Precipitation 0.00 in - - ()
Sea Level Pressure  
Sea Level Pressure 30.05 in    
Wind  
Wind Speed 6 mph ()    
Max Wind Speed 14 mph    
Max Gust Speed -    
Visibility 5.7 miles    
Events Rain    
Averages and records for this station are not official NWS values.
T = Trace of Precipitation, MM = Missing Value Source: Averaged Metar Reports

Daily Weather History Graph

Daily Weather History Graph

Search for Another Location

Airport or City:

Astronomy

Oct. 21, 2019 Rise Set
Actual Time 6:31 AM EAT 6:38 PM EAT
Civil Twilight 6:10 AM EAT 6:59 PM EAT
Nautical Twilight 5:46 AM EAT 7:23 PM EAT
Astronomical Twilight 5:21 AM EAT 7:48 PM EAT
Moon 12:17 AM EAT (10/21) 12:45 PM EAT (10/21)
Length of Visible Light 12h 48m
Length of Day
12h 06m
Waning Gibbous, 52% of the Moon is Illuminated
Oct 21
Waning Gibbous
Oct 21
Last Quarter
Oct 28
New
Nov 4
First Quarter
Nov 12
Full

Hourly Weather History & Observations

Time (EAT) Temp. Dew Point Humidity Pressure Visibility Wind Dir Wind Speed Gust Speed Precip Events Conditions
1:30 AM 69.8 °F 66.2 °F 88% 30.04 in 6.2 mi North 4.6 mph - N/A   Partly Cloudy
2:00 AM 68.0 °F 66.2 °F 94% 30.01 in 6.2 mi North 3.5 mph - N/A   Partly Cloudy
3:00 AM 68.0 °F 66.2 °F 94% 30.01 in 6.2 mi NW 2.3 mph - N/A   Partly Cloudy
6:30 AM 66.2 °F 64.4 °F 94% 30.04 in 6.2 mi NNW 3.5 mph - N/A   Partly Cloudy
7:00 AM 66.2 °F 64.4 °F 94% 30.06 in 6.2 mi NW 3.5 mph - N/A Rain Rain
8:00 AM 68.0 °F 66.2 °F 94% 30.09 in 5.6 mi NW 3.5 mph - N/A   Partly Cloudy
8:30 AM 66.2 °F 64.4 °F 94% 30.09 in 5.6 mi NW 5.8 mph - N/A Rain Rain
9:00 AM 67 °F 67 °F 99%  in 5 mi North 10.4 mph - - Rain Light Rain
9:00 AM 68.0 °F 66.2 °F 94% 30.12 in 5.0 mi North 10.4 mph - N/A Rain Rain
9:30 AM 68.0 °F 68.0 °F 100% 30.12 in 5.0 mi NNE 9.2 mph - N/A Rain Rain
10:00 AM 68.0 °F 68.0 °F 100% 30.12 in 4.3 mi North 10.4 mph - N/A Rain Rain
10:30 AM 68.0 °F 68.0 °F 100% 30.12 in 4.3 mi North 11.5 mph - N/A Rain Rain
11:00 AM 68.0 °F 68.0 °F 100% 30.09 in 4.3 mi North 8.1 mph - N/A Rain Rain
11:30 AM 69.8 °F 68.0 °F 94% 30.09 in 5.6 mi NNW 9.2 mph - N/A Rain Light Rain
12:00 PM 70 °F 67 °F 88%  in 6 mi North 8.1 mph - -   Partly Cloudy
12:00 PM 69.8 °F 68.0 °F 94% 30.09 in 5.6 mi North 8.1 mph - N/A   Mostly Cloudy
1:00 PM 71.6 °F 68.0 °F 88% 30.04 in 6.2 mi NW 5.8 mph - N/A   Partly Cloudy
1:30 PM 73.4 °F 68.0 °F 83% 30.04 in 6.2 mi WNW 9.2 mph - N/A   Partly Cloudy
2:00 PM 75.2 °F 66.2 °F 73% 30.01 in 6.2 mi West 8.1 mph - N/A   Partly Cloudy
2:30 PM 75.2 °F 66.2 °F 73% 29.98 in 6.2 mi West 8.1 mph - N/A   Partly Cloudy
3:00 PM 77.0 °F 66.2 °F 69% 30.01 in 6.2 mi SW 13.8 mph - N/A   Partly Cloudy
3:30 PM 77.0 °F 66.2 °F 69% 29.95 in 6.2 mi SW 13.8 mph - N/A   Partly Cloudy
4:00 PM 77.0 °F 66.2 °F 69% 29.95 in 6.2 mi SW 13.8 mph - N/A   Partly Cloudy
4:30 PM 77.0 °F 64.4 °F 65% 29.95 in 6.2 mi SW 13.8 mph - N/A   Partly Cloudy